BCS8461 LEMD-EGLL

Flight info

Callsign BCS8461
Flight time 1h 36m
Altitude 38000
Route SIE N858 DGO N867 NENEM DCT DIDIG UP87 ROXOG
Aircraft B77L/H-SDE1E2E3FGHIJ2J3J4J5M1RWXY/LB1D1

Departure

Time 2026-04-30 19:40
Airport Adolfo Suárez Madrid–Barajas Airport (LEMD)

Arrival

Time 2026-04-30 21:16
Airport London Heathrow Airport (EGLL)
Time Latitude Longitude Altitude Speed Heading
2026-04-30 19:05 40.45588 -3.56945 1985 ft 0 kts 135°
2026-04-30 19:26 40.45589 -3.56946 1985 ft 1 kts 135°
2026-04-30 19:26 40.45601 -3.56963 1984 ft 3 kts 129°
2026-04-30 19:27 40.45622 -3.57007 1985 ft 3 kts 105°
2026-04-30 19:27 40.45620 -3.57049 1984 ft 1 kts 46°
2026-04-30 19:28 40.45619 -3.57050 1984 ft 2 kts 45°
2026-04-30 19:30 40.45620 -3.57048 1984 ft 2 kts 45°
2026-04-30 19:31 40.45718 -3.56921 1986 ft 13 kts 44°
2026-04-30 19:31 40.45779 -3.56837 1987 ft 12 kts 54°
2026-04-30 19:31 40.45813 -3.56581 1987 ft 14 kts 70°
2026-04-30 19:32 40.45901 -3.56534 1985 ft 16 kts
2026-04-30 19:32 40.46009 -3.56527 1988 ft 16 kts
2026-04-30 19:32 40.46133 -3.56516 1985 ft 21 kts
2026-04-30 19:32 40.46283 -3.56505 1988 ft 22 kts
2026-04-30 19:33 40.46432 -3.56492 1986 ft 22 kts
2026-04-30 19:33 40.46582 -3.56477 1985 ft 22 kts
2026-04-30 19:33 40.46732 -3.56469 1986 ft 22 kts
2026-04-30 19:33 40.46879 -3.56464 1988 ft 22 kts
2026-04-30 19:34 40.47031 -3.56462 1986 ft 22 kts 354°
2026-04-30 19:34 40.47168 -3.56528 1985 ft 22 kts 323°
2026-04-30 19:34 40.47403 -3.56770 1987 ft 22 kts 322°
2026-04-30 19:35 40.47522 -3.56890 1987 ft 22 kts 322°
2026-04-30 19:35 40.47639 -3.57012 1985 ft 22 kts 322°
2026-04-30 19:35 40.47758 -3.57132 1988 ft 22 kts 322°
2026-04-30 19:35 40.47877 -3.57252 1989 ft 21 kts 322°
2026-04-30 19:36 40.47995 -3.57372 1985 ft 21 kts 322°
2026-04-30 19:36 40.48113 -3.57493 1989 ft 21 kts 322°
2026-04-30 19:36 40.48349 -3.57733 1988 ft 21 kts 322°
2026-04-30 19:37 40.48472 -3.57846 1987 ft 21 kts 330°
2026-04-30 19:37 40.48606 -3.57930 1985 ft 21 kts 346°
2026-04-30 19:37 40.48755 -3.57936 1985 ft 21 kts
2026-04-30 19:37 40.48905 -3.57937 1985 ft 21 kts 360°
2026-04-30 19:38 40.49054 -3.57938 1987 ft 21 kts 360°
2026-04-30 19:38 40.49153 -3.57924 1987 ft 13 kts 37°
2026-04-30 19:38 40.49173 -3.57808 1988 ft 13 kts 88°
2026-04-30 19:38 40.49174 -3.57686 1988 ft 13 kts 90°
2026-04-30 19:39 40.49196 -3.57568 1986 ft 13 kts 67°
2026-04-30 19:39 40.49249 -3.57472 1986 ft 13 kts 20°
2026-04-30 19:39 40.49576 -3.57466 1986 ft 104 kts 360°
2026-04-30 19:39 40.50696 -3.57474 2153 ft 201 kts 359°
2026-04-30 19:40 40.52160 -3.57458 3318 ft 215 kts
2026-04-30 19:40 40.53673 -3.57410 4773 ft 221 kts 358°
2026-04-30 19:40 40.55252 -3.57495 5586 ft 234 kts 358°
2026-04-30 19:40 40.56914 -3.57199 6331 ft 250 kts 19°
2026-04-30 19:41 40.58531 -3.56415 7431 ft 248 kts 20°
2026-04-30 19:41 40.60178 -3.55675 8510 ft 252 kts 17°
2026-04-30 19:41 40.61866 -3.54984 9595 ft 257 kts 16°
2026-04-30 19:41 40.63597 -3.54309 10593 ft 261 kts 14°
2026-04-30 19:42 40.65408 -3.53936 11472 ft 267 kts
2026-04-30 19:42 40.67284 -3.53824 12423 ft 272 kts
2026-04-30 19:42 40.69196 -3.53717 13414 ft 277 kts
2026-04-30 19:42 40.71142 -3.53576 14331 ft 283 kts
2026-04-30 19:43 40.73123 -3.53412 15219 ft 287 kts
2026-04-30 19:43 40.75130 -3.53237 16129 ft 291 kts
2026-04-30 19:43 40.77163 -3.53281 16896 ft 296 kts 351°
2026-04-30 19:44 40.81568 -3.54188 17528 ft 352 kts 348°
2026-04-30 19:44 40.84122 -3.54726 17762 ft 382 kts 349°
2026-04-30 19:44 40.86812 -3.55245 17976 ft 410 kts 350°
2026-04-30 19:44 40.89694 -3.55775 18570 ft 425 kts 351°
2026-04-30 19:45 40.92657 -3.56314 19298 ft 434 kts 351°
2026-04-30 19:45 40.95663 -3.56867 20166 ft 438 kts 351°
2026-04-30 19:45 40.98695 -3.57428 21056 ft 442 kts 351°
2026-04-30 19:45 41.01794 -3.58004 21921 ft 447 kts 351°
2026-04-30 19:46 41.04901 -3.58582 22719 ft 453 kts 351°
2026-04-30 19:46 41.08037 -3.59166 23514 ft 459 kts 351°
2026-04-30 19:46 41.11214 -3.59757 24242 ft 463 kts 351°
2026-04-30 19:46 41.14383 -3.60175 24819 ft 467 kts 359°
2026-04-30 19:47 41.17658 -3.59468 25334 ft 478 kts 19°
2026-04-30 19:47 41.19686 -3.58351 25709 ft 478 kts 24°
2026-04-30 19:47 41.23751 -3.55944 26420 ft 487 kts 23°
2026-04-30 19:47 41.26924 -3.54127 27082 ft 491 kts 22°
2026-04-30 19:48 41.30049 -3.52380 27746 ft 495 kts 22°
2026-04-30 19:48 41.33247 -3.50620 28397 ft 499 kts 22°
2026-04-30 19:48 41.36468 -3.48857 29000 ft 503 kts 22°
2026-04-30 19:48 41.39717 -3.47080 29529 ft 508 kts 22°
2026-04-30 19:49 41.43003 -3.45277 30118 ft 511 kts 22°
2026-04-30 19:49 41.49550 -3.41671 31507 ft 505 kts 22°
2026-04-30 19:49 41.52791 -3.39884 32295 ft 501 kts 22°
2026-04-30 19:50 41.56000 -3.38114 32988 ft 499 kts 22°
2026-04-30 19:50 41.59217 -3.36340 33550 ft 500 kts 22°
2026-04-30 19:50 41.62429 -3.34567 34090 ft 500 kts 21°
2026-04-30 19:50 41.65651 -3.32786 34602 ft 499 kts 22°
2026-04-30 19:51 41.68859 -3.31010 35070 ft 500 kts 22°
2026-04-30 19:51 41.72080 -3.29225 35091 ft 501 kts 22°
2026-04-30 19:51 41.78490 -3.25665 35102 ft 498 kts 22°
2026-04-30 19:52 41.84898 -3.22100 35106 ft 498 kts 22°
2026-04-30 19:52 41.91263 -3.18550 35128 ft 499 kts 22°
2026-04-30 19:53 41.97722 -3.14941 35114 ft 499 kts 22°
2026-04-30 19:53 42.04094 -3.11372 35119 ft 499 kts 22°
2026-04-30 19:54 42.10502 -3.07775 35119 ft 499 kts 22°
2026-04-30 19:54 42.16899 -3.04176 35130 ft 498 kts 21°
2026-04-30 19:55 42.23287 -3.00575 35117 ft 497 kts 22°
2026-04-30 19:55 42.29668 -2.96969 35126 ft 497 kts 21°
2026-04-30 19:56 42.36042 -2.93359 35129 ft 496 kts 22°
2026-04-30 19:56 42.42452 -2.89914 35122 ft 494 kts 15°
2026-04-30 19:57 42.49185 -2.88300 35129 ft 490 kts
2026-04-30 19:57 42.55983 -2.88481 35134 ft 488 kts 355°
2026-04-30 19:58 42.62770 -2.88935 35132 ft 489 kts 355°
2026-04-30 19:58 42.69564 -2.89339 35132 ft 489 kts 355°
2026-04-30 19:59 42.76364 -2.89696 35141 ft 489 kts 355°
2026-04-30 20:00 42.86572 -2.90215 35134 ft 489 kts 355°
2026-04-30 20:00 42.93371 -2.90567 35146 ft 489 kts 355°
2026-04-30 20:01 43.03524 -2.91095 35161 ft 488 kts 355°
2026-04-30 20:01 43.10305 -2.91449 35158 ft 488 kts 355°
2026-04-30 20:02 43.20487 -2.91980 35163 ft 487 kts 355°
2026-04-30 20:03 43.30612 -2.92664 35161 ft 483 kts 350°
2026-04-30 20:03 43.37165 -2.94473 35160 ft 479 kts 343°
2026-04-30 20:04 43.43655 -2.96597 35165 ft 479 kts 343°
2026-04-30 20:05 43.52295 -2.99343 35158 ft 478 kts 344°
2026-04-30 20:05 43.62025 -3.02392 35171 ft 477 kts 343°
2026-04-30 20:06 43.68496 -3.04428 35158 ft 477 kts 344°
2026-04-30 20:06 43.74992 -3.06340 35161 ft 477 kts 345°
2026-04-30 20:07 43.81500 -3.08178 35166 ft 478 kts 345°
2026-04-30 20:08 43.91280 -3.10990 35162 ft 478 kts 345°
2026-04-30 20:08 43.97789 -3.12877 35166 ft 478 kts 345°
2026-04-30 20:09 44.04394 -3.14084 35164 ft 484 kts 358°
2026-04-30 20:09 44.14276 -3.11250 35172 ft 490 kts 15°
2026-04-30 20:10 44.24035 -3.06814 35172 ft 489 kts 15°
2026-04-30 20:11 44.33707 -3.02527 35167 ft 487 kts 14°
2026-04-30 20:11 44.40168 -2.99696 35174 ft 485 kts 14°
2026-04-30 20:12 44.49808 -2.95463 35164 ft 483 kts 14°
2026-04-30 20:13 44.56216 -2.92637 35166 ft 482 kts 14°
2026-04-30 20:13 44.62608 -2.89811 35168 ft 482 kts 14°
2026-04-30 20:14 44.69001 -2.86977 35162 ft 481 kts 14°
2026-04-30 20:14 44.75385 -2.84142 35161 ft 481 kts 14°
2026-04-30 20:15 44.81767 -2.81300 35161 ft 481 kts 14°
2026-04-30 20:15 44.88154 -2.78450 35164 ft 481 kts 14°
2026-04-30 20:16 44.94541 -2.75593 35163 ft 482 kts 14°
2026-04-30 20:16 45.00927 -2.72730 35167 ft 482 kts 14°
2026-04-30 20:17 45.07318 -2.69857 35160 ft 482 kts 14°
2026-04-30 20:17 45.13706 -2.66979 35165 ft 481 kts 14°
2026-04-30 20:18 45.20032 -2.64122 35173 ft 479 kts 14°
2026-04-30 20:18 45.26370 -2.61253 35158 ft 477 kts 14°
2026-04-30 20:19 45.32685 -2.58388 35159 ft 476 kts 14°
2026-04-30 20:19 45.38985 -2.55524 35166 ft 475 kts 14°
2026-04-30 20:20 45.45281 -2.52655 35159 ft 474 kts 14°
2026-04-30 20:20 45.51567 -2.49783 35163 ft 474 kts 14°
2026-04-30 20:21 45.57853 -2.46905 35168 ft 474 kts 14°
2026-04-30 20:21 45.64133 -2.44023 35160 ft 474 kts 15°
2026-04-30 20:22 45.70421 -2.41129 35161 ft 474 kts 15°
2026-04-30 20:22 45.76666 -2.38249 35167 ft 474 kts 15°
2026-04-30 20:23 45.82948 -2.35345 35164 ft 474 kts 15°
2026-04-30 20:23 45.89235 -2.32431 35160 ft 473 kts 15°
2026-04-30 20:24 45.95500 -2.29520 35163 ft 473 kts 15°
2026-04-30 20:24 46.01753 -2.26610 35157 ft 472 kts 15°
2026-04-30 20:25 46.11281 -2.23386 35164 ft 468 kts
2026-04-30 20:26 46.20928 -2.21147 35155 ft 469 kts
2026-04-30 20:26 46.30551 -2.18824 35153 ft 469 kts
2026-04-30 20:27 46.43454 -2.15650 35150 ft 470 kts
2026-04-30 20:28 46.56374 -2.12460 35143 ft 471 kts
2026-04-30 20:30 46.72569 -2.08441 35147 ft 473 kts
2026-04-30 20:31 46.92010 -2.03584 35143 ft 474 kts
2026-04-30 20:32 47.08285 -1.99519 35140 ft 476 kts
2026-04-30 20:33 47.18089 -1.97094 35131 ft 476 kts
2026-04-30 20:34 47.27909 -1.94648 35134 ft 478 kts
2026-04-30 20:35 47.37814 -1.93087 35136 ft 478 kts 358°
2026-04-30 20:35 47.47782 -1.94228 35135 ft 480 kts 355°
2026-04-30 20:36 47.54438 -1.94971 35132 ft 480 kts 356°
2026-04-30 20:37 47.64448 -1.95119 35142 ft 480 kts
2026-04-30 20:37 47.70930 -1.92787 35134 ft 480 kts 19°
2026-04-30 20:38 47.77242 -1.89478 35140 ft 481 kts 20°
2026-04-30 20:38 47.83557 -1.86172 35131 ft 481 kts 19°
2026-04-30 20:39 47.93065 -1.81304 35130 ft 482 kts 19°
2026-04-30 20:40 48.02576 -1.76444 35129 ft 481 kts 18°
2026-04-30 20:40 48.09128 -1.74423 35139 ft 482 kts
2026-04-30 20:41 48.19183 -1.74213 35135 ft 482 kts 359°
2026-04-30 20:41 48.25888 -1.74386 35129 ft 482 kts 359°
2026-04-30 20:42 48.32606 -1.74503 35130 ft 483 kts 359°
2026-04-30 20:43 48.42698 -1.74623 35126 ft 484 kts 360°
2026-04-30 20:43 48.49431 -1.74700 35126 ft 484 kts 359°
2026-04-30 20:44 48.59553 -1.74820 35120 ft 485 kts 359°
2026-04-30 20:45 48.73071 -1.74983 35120 ft 486 kts 359°
2026-04-30 20:45 48.79830 -1.75065 35119 ft 486 kts 359°
2026-04-30 20:46 48.93318 -1.75197 35118 ft 485 kts
2026-04-30 20:47 49.03418 -1.74790 35115 ft 483 kts
2026-04-30 20:48 49.13467 -1.74355 35116 ft 481 kts
2026-04-30 20:48 49.20155 -1.74101 35115 ft 480 kts
2026-04-30 20:49 49.25755 -1.73892 35118 ft 480 kts
2026-04-30 20:50 49.35784 -1.73514 35117 ft 481 kts
2026-04-30 20:50 49.42473 -1.73259 35123 ft 481 kts
2026-04-30 20:51 49.49179 -1.73003 35125 ft 482 kts
2026-04-30 20:51 49.59258 -1.72617 35127 ft 483 kts
2026-04-30 20:52 49.65938 -1.72165 35127 ft 484 kts
2026-04-30 20:52 49.72631 -1.71544 34597 ft 480 kts
2026-04-30 20:53 49.75950 -1.71244 34125 ft 474 kts
2026-04-30 20:53 49.79220 -1.70959 33580 ft 468 kts
2026-04-30 20:53 49.82452 -1.70684 33090 ft 462 kts
2026-04-30 20:54 49.88795 -1.70151 32151 ft 450 kts
2026-04-30 20:54 49.91900 -1.69889 31696 ft 445 kts
2026-04-30 20:54 49.94979 -1.69628 31237 ft 440 kts
2026-04-30 20:55 50.00961 -1.68640 30336 ft 431 kts 13°
2026-04-30 20:55 50.03844 -1.67465 29850 ft 426 kts 18°
2026-04-30 20:55 50.06657 -1.66072 29360 ft 422 kts 19°
2026-04-30 20:56 50.12173 -1.63299 28473 ft 413 kts 19°
2026-04-30 20:56 50.14896 -1.61948 28037 ft 409 kts 19°
2026-04-30 20:56 50.20278 -1.59305 27184 ft 403 kts 19°
2026-04-30 20:57 50.22959 -1.57990 26764 ft 406 kts 19°
2026-04-30 20:57 50.25684 -1.56651 26335 ft 415 kts 20°
2026-04-30 20:57 50.28459 -1.55289 25911 ft 421 kts 19°
2026-04-30 20:58 50.34021 -1.52582 25022 ft 415 kts 20°
2026-04-30 20:58 50.36770 -1.51243 24589 ft 412 kts 20°
2026-04-30 20:58 50.39498 -1.49911 24161 ft 409 kts 20°
2026-04-30 20:58 50.42210 -1.48584 23733 ft 407 kts 21°
2026-04-30 20:59 50.47584 -1.45947 22792 ft 401 kts 21°
2026-04-30 20:59 50.50240 -1.44642 22368 ft 398 kts 21°
2026-04-30 21:00 50.55406 -1.41830 21527 ft 386 kts 29°
2026-04-30 21:00 50.60048 -1.37793 20729 ft 377 kts 34°
2026-04-30 21:01 50.64558 -1.33703 19932 ft 371 kts 33°
2026-04-30 21:01 50.66779 -1.31751 19559 ft 369 kts 33°
2026-04-30 21:01 50.71258 -1.27873 18775 ft 365 kts 33°
2026-04-30 21:02 50.73478 -1.25958 18371 ft 362 kts 33°
2026-04-30 21:02 50.75681 -1.24055 17930 ft 360 kts 32°
2026-04-30 21:02 50.77831 -1.22079 17506 ft 355 kts 36°
2026-04-30 21:02 50.79893 -1.19970 17122 ft 351 kts 38°
2026-04-30 21:03 50.81911 -1.17843 16724 ft 347 kts 38°
2026-04-30 21:03 50.83908 -1.15738 16348 ft 344 kts 38°
2026-04-30 21:03 50.85900 -1.13650 15971 ft 343 kts 37°
2026-04-30 21:03 50.87906 -1.11558 15594 ft 348 kts 37°
2026-04-30 21:04 50.89953 -1.09427 15219 ft 356 kts 37°
2026-04-30 21:04 50.92033 -1.07268 14813 ft 358 kts 37°
2026-04-30 21:04 50.96175 -1.02977 14034 ft 352 kts 37°
2026-04-30 21:05 50.98259 -1.01028 13572 ft 347 kts 26°
2026-04-30 21:05 51.00544 -0.99833 13218 ft 344 kts 18°
2026-04-30 21:05 51.02847 -0.98911 12918 ft 340 kts 16°
2026-04-30 21:05 51.05177 -0.98021 12687 ft 348 kts 16°
2026-04-30 21:06 51.07548 -0.97114 12393 ft 353 kts 15°
2026-04-30 21:06 51.09923 -0.96207 11939 ft 346 kts 15°
2026-04-30 21:06 51.12238 -0.95320 11462 ft 339 kts 15°
2026-04-30 21:06 51.14488 -0.94450 10972 ft 325 kts 15°
2026-04-30 21:07 51.16643 -0.93611 10515 ft 312 kts 15°
2026-04-30 21:07 51.18710 -0.92800 10123 ft 301 kts 15°
2026-04-30 21:07 51.20729 -0.92001 9673 ft 299 kts 15°
2026-04-30 21:07 51.22724 -0.91203 9215 ft 299 kts 15°
2026-04-30 21:08 51.24735 -0.90393 8761 ft 297 kts 15°
2026-04-30 21:08 51.26731 -0.89584 8306 ft 294 kts 15°
2026-04-30 21:08 51.28696 -0.88785 7824 ft 288 kts 15°
2026-04-30 21:08 51.30614 -0.88004 7332 ft 281 kts 15°
2026-04-30 21:09 51.32483 -0.87240 6844 ft 274 kts 15°
2026-04-30 21:09 51.34307 -0.86493 6348 ft 267 kts 15°
2026-04-30 21:09 51.36095 -0.85758 5855 ft 266 kts 15°
2026-04-30 21:09 51.37912 -0.85009 5420 ft 270 kts 15°
2026-04-30 21:10 51.39744 -0.84256 4969 ft 269 kts 15°
2026-04-30 21:10 51.41562 -0.83515 4454 ft 269 kts 16°
2026-04-30 21:10 51.43336 -0.82689 4083 ft 257 kts 28°
2026-04-30 21:10 51.44682 -0.81020 4006 ft 242 kts 52°
2026-04-30 21:11 51.45737 -0.78961 3831 ft 238 kts 64°
2026-04-30 21:11 51.46196 -0.76569 3565 ft 212 kts 88°
2026-04-30 21:11 51.46342 -0.74340 3281 ft 189 kts 92°
2026-04-30 21:11 51.46391 -0.72330 3021 ft 172 kts 96°
2026-04-30 21:12 51.46403 -0.70450 2805 ft 163 kts 96°
2026-04-30 21:12 51.46410 -0.68708 2596 ft 150 kts 97°
2026-04-30 21:12 51.46414 -0.67052 2400 ft 148 kts 97°
2026-04-30 21:12 51.46419 -0.65400 2200 ft 147 kts 97°
2026-04-30 21:13 51.46424 -0.63770 2014 ft 146 kts 97°
2026-04-30 21:13 51.46429 -0.62152 1816 ft 145 kts 96°
2026-04-30 21:13 51.46434 -0.60530 1623 ft 145 kts 96°
2026-04-30 21:13 51.46441 -0.58962 1422 ft 136 kts 96°
2026-04-30 21:14 51.46445 -0.57477 1244 ft 134 kts 95°
2026-04-30 21:14 51.46450 -0.55976 1075 ft 135 kts 93°
2026-04-30 21:14 51.46449 -0.54476 877 ft 135 kts 92°
2026-04-30 21:14 51.46447 -0.52961 729 ft 139 kts 90°
2026-04-30 21:15 51.46464 -0.51402 536 ft 140 kts 89°
2026-04-30 21:15 51.46467 -0.49828 326 ft 140 kts 89°
2026-04-30 21:15 51.46478 -0.48276 138 ft 137 kts 89°
2026-04-30 21:15 51.46483 -0.46808 96 ft 117 kts 89°
2026-04-30 21:16 51.46486 -0.45799 94 ft 64 kts 90°
2026-04-30 21:16 51.46487 -0.45297 96 ft 27 kts 94°
2026-04-30 21:16 51.46441 -0.45001 97 ft 27 kts 112°
2026-04-30 21:16 51.46359 -0.44870 94 ft 14 kts 178°
2026-04-30 21:17 51.46318 -0.44992 94 ft 12 kts 270°
2026-04-30 21:17 51.46318 -0.45122 94 ft 12 kts 270°
2026-04-30 21:17 51.46318 -0.45178 94 ft 1 kts 270°
2026-04-30 21:17 51.46318 -0.45220 95 ft 8 kts 269°
2026-04-30 21:18 51.46317 -0.45325 94 ft 10 kts 269°
2026-04-30 21:18 51.46316 -0.45451 94 ft 12 kts 269°
2026-04-30 21:18 51.46316 -0.45592 94 ft 13 kts 273°
2026-04-30 21:18 51.46324 -0.45748 91 ft 15 kts 271°
2026-04-30 21:19 51.46323 -0.45922 91 ft 16 kts 269°
2026-04-30 21:19 51.46321 -0.46109 91 ft 17 kts 269°
2026-04-30 21:19 51.46320 -0.46311 93 ft 19 kts 270°
2026-04-30 21:19 51.46321 -0.46523 93 ft 19 kts 270°
2026-04-30 21:20 51.46322 -0.46742 91 ft 20 kts 270°
2026-04-30 21:20 51.46322 -0.46967 91 ft 21 kts 269°
2026-04-30 21:20 51.46321 -0.47174 93 ft 12 kts 269°
2026-04-30 21:20 51.46274 -0.47259 93 ft 13 kts 184°
2026-04-30 21:21 51.46185 -0.47261 94 ft 13 kts 180°
2026-04-30 21:21 51.46104 -0.47262 94 ft 9 kts 181°
2026-04-30 21:21 51.46021 -0.47380 92 ft 0 kts 233°